[Iaude] MPEC G165: 2024 GY3 [a=2.54,e=0.85,i=7.4,H=23.6]
    mpec at cfa.harvard.edu 
    mpec at cfa.harvard.edu
       
    Thu Apr 11 19:50:51 EDT 2024
    
    
  
M.P.E.C. 2024-G165                               Issued 2024 April 11, 23:49 UT
     The Minor Planet Electronic Circulars contain information on unusual
         minor planets, routine data on comets and natural satellites,
         and occasional editorial announcements.  They are published
    on behalf of Division F of the International Astronomical Union by the
          Minor Planet Center, Smithsonian Astrophysical Observatory,
                          Cambridge, MA 02138, U.S.A.
			  
             Prepared using the Tamkin Foundation Computer Network
                              MPC at CFA.HARVARD.EDU
            URL https://www.minorplanetcenter.net/    ISSN 1523-6714
                                    2024 GY3                                    
Observations:
     K24G03Y 1C2024 04 04.21960 09 51 33.00 +07 43 33.7          19.5 GVEG165703
     K24G03Y 1C2024 04 04.22413 09 51 42.62 +07 43 27.8          19.4 GVEG165703
     K24G03Y* C2024 04 09.36260011 14 15.928+06 24 32.42         20.97wXEG165F52
     K24G03Y  C2024 04 09.38614711 14 25.119+06 24 18.67         20.80wXEG165F52
     K24G03Y  C2024 04 09.39790611 14 29.701+06 24 11.79         20.81wXEG165F52
     K24G03Y  C2024 04 09.54313211 15 26.174+06 22 44.77         21.18GVEG165F51
     K24G03Y  C2024 04 09.54396211 15 26.516+06 22 44.21         20.72GVEG165F51
     K24G03Y 7C2024 04 09.92090511 17 54.735+06 19 04.29         20.4 GVEG165Z84
     K24G03Y 7C2024 04 09.92585911 17 56.432+06 19 01.15         21.1 GVEG165Z84
     K24G03Y KC2024 04 09.98041511 18 15.562+06 18 20.52         21.0 GVEG165J95
     K24G03Y KC2024 04 09.99822811 18 21.797+06 18 11.23         20.7 GVEG165J95
     K24G03Y KC2024 04 10.20969811 19 38.248+06 16 36.16         20.84GVEG165I52
     K24G03Y KC2024 04 10.21286011 19 39.277+06 16 34.43         21.19GVEG165I52
     K24G03Y KC2024 04 10.21431211 19 39.749+06 16 33.42         20.96GVEG165I52
     K24G03Y KC2024 04 10.21576511 19 40.224+06 16 32.34         20.96GVEG165I52
     K24G03Y KC2024 04 11.20478911 24 52.254+06 08 30.34         21.23GVEG165I52
     K24G03Y KC2024 04 11.20704711 24 52.888+06 08 29.47         21.72GVEG165I52
     K24G03Y KC2024 04 11.21156011 24 54.097+06 08 27.10         20.50GVEG165I52
     K24G03Y KB2024 04 11.93407611 28 07.97 +06 03 00.1          21.1 GXEG165I93
     K24G03Y KB2024 04 11.95088411 28 12.01 +06 02 52.7          20.5 GXEG165I93
Observer details:
703 Catalina Sky Survey.  Observer J. B. Fazekas.  Measurers B. Gray, D.
    Rankin, F. C. Shelly.  0.68-m Schmidt + 10K CCD.
F51 Pan-STARRS 1, Haleakala.  Observers J. Herman, T. Lowe, P. Minguez, A.
    Schultz, I. Smith.  Measurers K. Chambers, T. de Boer, J. Fairlamb, H.
    Gao, M. Huber, C.-C. Lin, E. Magnier, Y. Ramanjooloo, R. Wainscoat, R.
    Weryk.  1.8-m Ritchey-Chretien + CCD.
F52 Pan-STARRS 2, Haleakala.  Observers J. Herman, T. Lowe, P. Minguez, A.
    Schultz, I. Smith.  Measurers K. Chambers, T. de Boer, J. Fairlamb, H.
    Gao, M. Huber, C.-C. Lin, E. Magnier, Y. Ramanjooloo, R. Wainscoat, R.
    Weryk.  1.8-m Ritchey-Chretien + CCD.
I52 Steward Observatory, Mt. Lemmon Station.  Observers G. J. Leonard, V. F.
    Carvajal.  Measurers T. Beuden, V. F. Carvajal, D. Fay, J. B. Fazekas, D.
    C. Fuls, A. R. Gibbs, A. D. Grauer, H. Groeller, J. K. Hogan, R. A.
    Kowalski, S. M. Larson, G. J. Leonard, D. Rankin, R. L. Seaman, F. C.
    Shelly, K. W. Wierzchos.  1.0-m prime focus + CCD.
I93 St Pardon de Conques.  Observer F. Losse.  0.40-m f/3.7 reflector + CCD.
J95 Great Shefford.  Observer P. Birtwhistle.  0.41-m f/6.3 Schmidt-Cassegrain
    + CCD.
Z84 Calar Alto-Schmidt.  Observers F. Ocana, R. Kresken, M. Micheli, L.
    Conversi.  Measurers F. Ocana, M. Micheli.  0.8-m f/3 Schmidt + CCD.
Orbital elements:
2024 GY3                                                 Earth MOID = 0.0098 AU
Epoch 2024 Mar. 31.0 TT = JDT 2460400.5                 Veres                   
M  10.00017              (2000.0)            P               Q                  
n   0.24351739     Peri.  245.65839     +0.17511707     -0.98403543             
a   2.5397018      Node   194.36431     +0.94333290     +0.17693296             
e   0.8487387      Incl.    7.35365     +0.28188129     +0.01920921             
P   4.05           H   23.69          G   0.15           U   9                  
Residuals in seconds of arc
240404 703  0.2-  0.0     240409 Z84  0.1+  0.2+    240410 I52  0.1-  0.4-
240404 703  0.1+  0.1-    240409 Z84  0.3-  0.3-    240411 I52  0.3-  0.2-
240409 F52  0.1+  0.1-    240409 J95  0.0   0.3-    240411 I52  0.1+  0.1-
240409 F52  0.1+  0.0     240409 J95  0.2+  0.0     240411 I52  0.1+  0.4-
240409 F52  0.1+  0.1+    240410 I52  0.0   0.3+    240411 I93  0.0   0.8+
240409 F51  0.1-  0.1+    240410 I52  0.0   0.2+    240411 I93  0.6+  0.6+
240409 F51  0.2+  0.1+    240410 I52  0.1-  0.1-
Ephemeris:
2024 GY3                 a,e,i = 2.54, 0.85, 7                   q = 0.3842
Date    TT    R. A. (2000) Decl.     Delta      r    Elong.  Phase     V
2024 03 12    00 29 47.5 -04 04 40   0.3625  0.6508    15.2   156.4    30.4
...
2024 03 27    01 35 55.5 -02 26 59   0.09529 0.9081    18.7   159.4    29.1
...
2024 04 04    09 43 11.9 +07 49 07   0.05861 1.0394   130.8    46.8    19.4
...
2024 04 10    11 18 23.2 +06 18 52   0.1532  1.1342   147.6    28.2    21.1
2024 04 11    11 23 51.7 +06 10 29   0.1700  1.1497   147.9    27.6    21.4
2024 04 12    11 28 24.5 +06 03 01   0.1869  1.1652   148.0    27.1    21.6
...
2024 04 18    11 45 20.2 +05 28 03   0.2906  1.2559   146.2    26.4    22.7
...
2024 04 26    11 57 11.6 +04 49 23   0.4344  1.3724   141.3    27.3    23.8
...
2024 05 11    12 11 53.1 +03 32 57   0.7213  1.5781   130.7    29.0    25.2
M. P. C. Staff               (C) Copyright 2024 MPC           M.P.E.C. 2024-G165
    
    
More information about the Iaude
mailing list